• In Österreich
  • Länderverzeichnis
  • Für 7 Tage
  • Wassertemperatur
  • Satellitenkarten
  • Wetterkarte
  • News
  • Widgets
  • user-avatar
    Anmelden

    Stündliche Wetter Kaprun

    Heute, 25 Februar, Sonntag

    Zeit Temperatur Niederschläge Wind Luftdruck Luftfeuchtigkeit
    00:00 -17°C° 0 mm 2 m/S 589 mmHg 91%
    01:00 -18°C° 0 mm 2 m/S 589 mmHg 89%
    02:00 -19°C° 0 mm 2 m/S 588 mmHg 90%
    03:00 -19°C° 0 mm 2 m/S 588 mmHg 90%
    04:00 -20°C° 0 mm 2 m/S 588 mmHg 91%
    05:00 -20°C° 0 mm 2 m/S 588 mmHg 92%
    06:00 -21°C° 0 mm 2 m/S 587 mmHg 92%
    07:00 -23°C° 0 mm 2 m/S 587 mmHg 95%
    08:00 -20°C° 0 mm 2 m/S 588 mmHg 92%
    09:00 -19°C° 0 mm 2 m/S 588 mmHg 88%
    10:00 -17°C° 0 mm 2 m/S 589 mmHg 85%
    11:00 -16°C° 0 mm 2 m/S 589 mmHg 82%
    12:00 -16°C° 0 mm 2 m/S 589 mmHg 80%
    13:00 -15°C° 0 mm 2 m/S 590 mmHg 77%
    14:00 -15°C° 0 mm 2 m/S 589 mmHg 80%
    15:00 -16°C° 0 mm 2 m/S 589 mmHg 82%
    16:00 -16°C° 0 mm 2 m/S 589 mmHg 85%
    17:00 -18°C° 0,1 mm 2 m/S 588 mmHg 88%
    18:00 -20°C° 0,1 mm 2 m/S 588 mmHg 92%
    19:00 -21°C° 0,1 mm 2 m/S 587 mmHg 95%
    20:00 -23°C° 0 mm 2 m/S 587 mmHg 95%
    21:00 -21°C° 0 mm 1 m/S 586 mmHg 95%
    22:00 -22°C° 0 mm 1 m/S 586 mmHg 95%
    23:00 -23°C° 0 mm 1 m/S 586 mmHg 95%

    Morgen, 26 Februar, Montag

    Zeit Temperatur Niederschläge Wind Luftdruck Luftfeuchtigkeit
    00:00 -26°C° 0 mm 2 m/S 585 mmHg 95%
    01:00 -27°C° 0 mm 2 m/S 585 mmHg 95%
    02:00 -27°C° 0 mm 2 m/S 585 mmHg 95%
    03:00 -28°C° 0 mm 2 m/S 584 mmHg 94%
    04:00 -28°C° 0 mm 2 m/S 584 mmHg 94%
    05:00 -29°C° 0 mm 2 m/S 584 mmHg 94%
    06:00 -29°C° 0 mm 2 m/S 584 mmHg 94%
    07:00 -29°C° 0 mm 2 m/S 583 mmHg 94%
    08:00 -27°C° 0 mm 2 m/S 584 mmHg 90%
    09:00 -25°C° 0 mm 2 m/S 585 mmHg 87%
    10:00 -23°C° 0 mm 2 m/S 586 mmHg 84%
    11:00 -21°C° 0 mm 2 m/S 586 mmHg 83%
    12:00 -21°C° 0 mm 2 m/S 586 mmHg 81%
    13:00 -22°C° 0 mm 3 m/S 586 mmHg 80%
    14:00 -22°C° 0,1 mm 3 m/S 586 mmHg 82%
    15:00 -22°C° 0,1 mm 3 m/S 585 mmHg 83%
    16:00 -22°C° 0,1 mm 3 m/S 585 mmHg 85%
    17:00 -21°C° 0,1 mm 2 m/S 585 mmHg 88%
    18:00 -23°C° 0,1 mm 2 m/S 585 mmHg 91%
    19:00 -25°C° 0,1 mm 2 m/S 584 mmHg 94%
    20:00 -25°C° 0,1 mm 2 m/S 584 mmHg 95%
    21:00 -25°C° 0,1 mm 2 m/S 584 mmHg 95%
    22:00 -23°C° 0,1 mm 1 m/S 584 mmHg 95%
    23:00 -23°C° 0,1 mm 1 m/S 583 mmHg 95%

    übermorgen, 27 Februar, Dienstag

    Zeit Temperatur Niederschläge Wind Luftdruck Luftfeuchtigkeit
    00:00 -27°C° 0,1 mm 2 m/S 583 mmHg 94%
    01:00 -27°C° 0,1 mm 2 m/S 583 mmHg 94%
    02:00 -27°C° 0,1 mm 2 m/S 582 mmHg 94%
    03:00 -27°C° 0,1 mm 2 m/S 582 mmHg 94%
    04:00 -27°C° 0,1 mm 2 m/S 582 mmHg 94%
    05:00 -28°C° 0,1 mm 2 m/S 582 mmHg 93%
    06:00 -28°C° 0,1 mm 2 m/S 582 mmHg 93%
    07:00 -28°C° 0,1 mm 2 m/S 582 mmHg 93%
    08:00 -26°C° 0 mm 2 m/S 582 mmHg 91%
    09:00 -24°C° 0 mm 2 m/S 583 mmHg 88%
    10:00 -21°C° 0 mm 2 m/S 584 mmHg 86%
    11:00 -21°C° 0,1 mm 2 m/S 584 mmHg 84%
    12:00 -20°C° 0,1 mm 2 m/S 584 mmHg 82%
    13:00 -19°C° 0,1 mm 2 m/S 585 mmHg 80%
    14:00 -19°C° 0,1 mm 2 m/S 585 mmHg 81%
    15:00 -19°C° 0,1 mm 2 m/S 584 mmHg 83%
    16:00 -19°C° 0,1 mm 2 m/S 584 mmHg 84%
    17:00 -19°C° 0,1 mm 1 m/S 584 mmHg 88%
    18:00 -20°C° 0,1 mm 1 m/S 584 mmHg 92%
    19:00 -22°C° 0,1 mm 1 m/S 583 mmHg 95%
    20:00 -22°C° 0 mm 1 m/S 583 mmHg 95%
    21:00 -23°C° 0 mm 1 m/S 583 mmHg 95%
    22:00 -24°C° 0 mm 1 m/S 583 mmHg 94%
    23:00 -24°C° 0 mm 1 m/S 583 mmHg 93%

    28 Februar, Mittwoch

    Zeit Temperatur Niederschläge Wind Luftdruck Luftfeuchtigkeit
    00:00 -25°C° 0 mm 1 m/S 583 mmHg 91%
    01:00 -25°C° 0 mm 1 m/S 583 mmHg 90%
    02:00 -25°C° 0 mm 1 m/S 583 mmHg 89%
    03:00 -25°C° 0 mm 1 m/S 583 mmHg 88%
    04:00 -27°C° 0 mm 1 m/S 583 mmHg 87%
    05:00 -27°C° 0 mm 1 m/S 583 mmHg 87%
    06:00 -27°C° 0 mm 1 m/S 583 mmHg 86%
    07:00 -27°C° 0 mm 1 m/S 583 mmHg 86%
    08:00 -23°C° 0 mm 1 m/S 585 mmHg 79%
    09:00 -19°C° 0 mm 1 m/S 586 mmHg 73%
    10:00 -16°C° 0 mm 0 m/S 588 mmHg 67%
    11:00 -15°C° 0 mm 1 m/S 588 mmHg 67%
    12:00 -14°C° 0 mm 1 m/S 589 mmHg 67%
    13:00 -12°C° 0 mm 1 m/S 589 mmHg 67%
    14:00 -12°C° 0 mm 1 m/S 589 mmHg 69%
    15:00 -12°C° 0 mm 1 m/S 589 mmHg 72%
    16:00 -14°C° 0 mm 2 m/S 589 mmHg 75%
    17:00 -14°C° 0 mm 1 m/S 588 mmHg 81%
    18:00 -16°C° 0 mm 1 m/S 588 mmHg 86%
    19:00 -19°C° 0 mm 1 m/S 587 mmHg 92%
    20:00 -19°C° 0 mm 1 m/S 587 mmHg 91%
    21:00 -21°C° 0 mm 2 m/S 587 mmHg 90%
    22:00 -23°C° 0 mm 2 m/S 587 mmHg 89%
    23:00 -23°C° 0 mm 2 m/S 587 mmHg 86%

    1 März, Donnerstag

    Zeit Temperatur Niederschläge Wind Luftdruck Luftfeuchtigkeit
    00:00 -23°C° 0 mm 2 m/S 587 mmHg 84%
    01:00 -21°C° 0 mm 2 m/S 587 mmHg 81%
    02:00 -21°C° 0 mm 2 m/S 586 mmHg 81%
    03:00 -21°C° 0 mm 2 m/S 586 mmHg 80%
    04:00 -20°C° 0 mm 2 m/S 586 mmHg 80%
    05:00 -20°C° 0 mm 2 m/S 586 mmHg 80%
    06:00 -20°C° 0 mm 2 m/S 586 mmHg 80%
    07:00 -19°C° 0 mm 2 m/S 586 mmHg 80%
    08:00 -16°C° 0 mm 2 m/S 587 mmHg 79%
    09:00 -14°C° 0 mm 2 m/S 587 mmHg 78%
    10:00 -10°C° 0 mm 2 m/S 588 mmHg 77%
    11:00 -9°C° 0 mm 2 m/S 588 mmHg 79%
    12:00 -9°C° 0 mm 3 m/S 588 mmHg 82%
    13:00 -8°C° 0 mm 3 m/S 588 mmHg 84%
    14:00 -8°C° 0 mm 3 m/S 587 mmHg 86%
    15:00 -8°C° 0 mm 3 m/S 587 mmHg 88%
    16:00 -7°C° 0 mm 2 m/S 587 mmHg 90%
    17:00 -8°C° 0 mm 2 m/S 586 mmHg 91%
    18:00 -9°C° 0 mm 2 m/S 586 mmHg 92%
    19:00 -10°C° 0 mm 2 m/S 586 mmHg 93%
    20:00 -10°C° 0,1 mm 2 m/S 586 mmHg 93%
    21:00 -10°C° 0,1 mm 2 m/S 586 mmHg 92%
    22:00 -10°C° 0,1 mm 2 m/S 586 mmHg 92%
    23:00 -10°C° 0 mm 2 m/S 585 mmHg 91%

    2 März, Freitag

    Zeit Temperatur Niederschläge Wind Luftdruck Luftfeuchtigkeit
    00:00 -10°C° 0 mm 2 m/S 585 mmHg 91%
    01:00 -10°C° 0 mm 2 m/S 585 mmHg 91%
    02:00 -10°C° 0 mm 2 m/S 585 mmHg 90%
    03:00 -10°C° 0 mm 2 m/S 584 mmHg 90%
    04:00 -10°C° 0 mm 2 m/S 584 mmHg 89%
    05:00 -10°C° 0 mm 2 m/S 584 mmHg 89%
    06:00 -10°C° 0 mm 2 m/S 584 mmHg 88%
    07:00 -10°C° 0 mm 2 m/S 584 mmHg 87%
    08:00 -7°C° 0 mm 1 m/S 585 mmHg 87%
    09:00 -3°C° 0 mm 1 m/S 586 mmHg 87%
    10:00 -1°C° 0 mm 1 m/S 587 mmHg 88%
    11:00 0°C° 0 mm 1 m/S 586 mmHg 89%
    12:00 0°C° 0 mm 1 m/S 586 mmHg 91%
    13:00 +1°C° 0 mm 1 m/S 586 mmHg 93%
    14:00 +1°C° 0 mm 1 m/S 586 mmHg 94%
    15:00 +1°C° 0 mm 1 m/S 586 mmHg 94%
    16:00 -2°C° 0 mm 2 m/S 585 mmHg 95%
    17:00 -3°C° 0 mm 2 m/S 585 mmHg 95%
    18:00 -4°C° 0 mm 2 m/S 585 mmHg 94%
    19:00 -5°C° 0 mm 2 m/S 585 mmHg 94%
    20:00 -6°C° 0 mm 2 m/S 584 mmHg 93%
    21:00 -6°C° 0 mm 2 m/S 584 mmHg 92%
    22:00 -7°C° 0 mm 2 m/S 584 mmHg 91%
    23:00 -7°C° 0 mm 2 m/S 584 mmHg 91%
    Mehr zeigen